This is the latest recevied weather packets stored in our database for station/object K8RLH. If no packets are shown the sender has not sent any weather packets the latest 10 day(s).
| Time | Temp. | Humidity | Pressure | Rain* | Wind** | Luminosity | Snow |
|---|---|---|---|---|---|---|---|
| 1778020991 | 25.56° C | 38% | 1015.2 hPa | 0 mm | - | 31 W/m² | - |
| 1778020688 | 26.11° C | 37% | 1015.5 hPa | 0 mm | - | 33 W/m² | - |
| 1778020386 | 26.11° C | 37% | 1015.1 hPa | 0 mm | - | 31 W/m² | - |
| 1778020081 | 26.11° C | 39% | 1015.1 hPa | 0 mm | - | 31 W/m² | - |
| 1778019777 | 26.11° C | 38% | 1015.1 hPa | 0 mm | - | 33 W/m² | - |
| 1778019475 | 25.56° C | 39% | 1015.3 hPa | 0 mm | - | 37 W/m² | - |
| 1778019171 | 26.11° C | 38% | 1015 hPa | 0 mm | - | 34 W/m² | - |
| 1778018868 | 26.11° C | 38% | 1015.3 hPa | 0 mm | - | 38 W/m² | - |
| 1778018565 | 26.11° C | 38% | 1015.5 hPa | 0 mm | - | 36 W/m² | - |
| 1778018263 | 26.11° C | 37% | 1015.4 hPa | 0 mm | - | 184 W/m² | - |
| 1778017961 | 26.11° C | 37% | 1015.4 hPa | 0 mm | - | 57 W/m² | - |
| 1778017659 | 26.11° C | 37% | 1015.5 hPa | 0 mm | - | 48 W/m² | - |
| 1778017356 | 26.11° C | 38% | 1015.3 hPa | 0 mm | - | 45 W/m² | - |
| 1778017053 | 26.11° C | 37% | 1015.6 hPa | 0 mm | - | 43 W/m² | - |
| 1778016750 | 26.67° C | 36% | 1015.2 hPa | 0 mm | - | 64 W/m² | - |
| 1778016446 | 26.11° C | 37% | 1015.4 hPa | 0 mm | - | 68 W/m² | - |
| 1778016144 | 26.11° C | 36% | 1015.6 hPa | 0 mm | - | 63 W/m² | - |
| 1778015840 | 26.11° C | 36% | 1015.4 hPa | 0 mm | - | 152 W/m² | - |
| 1778015538 | 25.56° C | 36% | 1015.5 hPa | 0 mm | - | 225 W/m² | - |
| 1778015234 | 26.11° C | 36% | 1015.7 hPa | 0 mm | - | 76 W/m² | - |
| 1778014931 | 26.67° C | 36% | 1015.6 hPa | 0 mm | - | 357 W/m² | - |
| 1778014628 | 26.67° C | 35% | 1015.5 hPa | 0 mm | - | 445 W/m² | - |
| 1778014327 | 26.67° C | 36% | 1015.7 hPa | 0 mm | - | 434 W/m² | - |
| 1778014022 | 26.67° C | 35% | 1015.7 hPa | 0 mm | - | 485 W/m² | - |
| 1778013721 | 26.11° C | 35% | 1015.6 hPa | 0 mm | - | 304 W/m² | - |
* Rain latest hour (hover to see other rain measurements)
** Current wind speed in m/s (hover to see current wind gust speed)